Вернуться в каталог

STARLINK-3595

АктивенСвязьVLEO
NORAD 51894·PAYLOAD·🇺🇸 United States

Запущен Mar 3, 2022 с Cape Canaveral Space Force Station

Loading…

Ближайшие Пролёты (ближайшие 24 часа)

TLE

СвежийSource: CelesTrak SupGP

Эпоха: Sep 15, 2026, 01:46 UTC

1 51894C 22022AU  26258.07409722 -.00022877  00000+0 -67589-3 0  2582
2 51894  53.1567 213.4353 0001551  94.9580  85.8738 15.34402917    10

Отслеживайте STARLINK-3595 в реальном времени с AllMySat

Download on the App Store